[[{"header":{"parameterUnit":"m.s-1","parameterCategory":1,"la1":30.2991,"la2":30.254,"lo1":-89.0895,"lo2":-89.0444,"dy":0.0017,"dx":0.0017,"nx":28,"ny":28,"refTime":"2025-08-18T21:00:00:Z","depth":0,"parameterNumber":2,"parameterNumberName":"U-component_of_WINDS"},"data":[0,0,0,0,0,0,0,0,0,0,0,0,0,0,0,0,0,0,0,0,0,0,0,0,0,0,0,0,0,0,0,0,0,0,0,0,0,0,0,0,0,0,0,0,0,0,0,0,0,0,0,0,0,0,0,0,0,0,0.811,0.8111,0,0.8186,0.8187,0.8188,0.816,0.8159,0.8157,0.8155,0.8249,0.8253,0.8257,0,0,0,0,0,0,0,0,0,0,0,0,0,0.7954,0.7957,0.811,0.8111,0.8112,0.8186,0.8187,0.8188,0.8161,0.8158,0.8156,0.8154,0.8247,0.8252,0.8257,0,0,0,0,0,0,0,0,0,0,0,0,0,0.8026,0.7958,0.811,0.8107,0.8107,0.8185,0.8187,0.8188,0.8161,0.8158,0.8156,0.8153,0.8246,0.8252,0.8258,0.8349,0,0,0.8277,0.828,0,0,0,0,0,0,0,0,0.8022,0.8031,0.8106,0.8107,0.8108,0.816,0.8166,0.8243,0.8162,0.8141,0.8155,0.8152,0.8223,0.8231,0.8251,0.8353,0.8357,0.8277,0.8281,0.8284,0.8286,0,0,0,0,0,0,0,0.8017,0.8028,0.8141,0.8108,0.8108,0.8106,0.8113,0.818,0.8196,0.8143,0.8141,0.8149,0.8223,0.8245,0.8253,0.8358,0.8277,0.8283,0.8287,0.8289,0.8534,0.8537,0,0,0,0,0,0,0.8009,0.8024,0.8138,0.8143,0.8057,0.8111,0.8119,0.8147,0.8195,0.82,0.8151,0.8148,0.8236,0.8246,0.8256,0.8362,0.8284,0.829,0.8293,0.8531,0.8535,0.8538,0,0,0,0,0,0,0.8006,0.802,0.8135,0.8083,0.8097,0.8116,0.8148,0.8149,0.8171,0.8202,0.8206,0.817,0.8234,0.8248,0.8324,0.8365,0.8292,0.8298,0.8528,0.8532,0.8536,0.8576,0,0,0,0,0,0,0.8002,0.8019,0.8051,0.8083,0.81,0.8198,0.815,0.8153,0.818,0.8176,0.8221,0.8226,0.8233,0.8314,0.833,0.8372,0.8303,0.8525,0.853,0.8535,0.8571,0.8581,0.8589,0,0,0,0,0,0.7996,0.8063,0.8052,0.8066,0.8139,0.82,0.821,0.8212,0.8184,0.8217,0.8236,0.8224,0.8358,0.8322,0.834,0.8384,0.8522,0.8528,0.8535,0.8567,0.8579,0.8589,0,0,0,0,0,0,0.8042,0.8068,0.8056,0.8135,0.8164,0.8195,0.8238,0.8226,0.8269,0.8264,0.827,0.828,0.8357,0.8379,0.8339,0.8472,0.8436,0.8446,0.8455,0.8467,0.8475,0.8468,0.8308,0,0,0,0,0,0.8059,0.8102,0.8125,0.8192,0.8207,0.8219,0.8246,0.8245,0.8278,0.8292,0.8317,0.8354,0.8403,0.8437,0.8485,0.8574,0.8583,0.8613,0.8622,0.863,0.8638,0.8683,0.8696,0.8559,0.8558,0.8558,0,0,0.81,0.8119,0.8147,0.8201,0.8224,0.8271,0.8231,0.8283,0.8318,0.8302,0.8372,0.8392,0.8434,0.8515,0.8553,0.8536,0.8678,0.8638,0.8643,0.8648,0.8691,0.8704,0.8716,0.8563,0.8562,0.8561,0,0,0.8195,0.8214,0.827,0.8292,0.8324,0.8332,0.8345,0.8377,0.8386,0.8456,0.8443,0.8488,0.8575,0.8603,0.8629,0.873,0.872,0.8747,0.8794,0.8838,0.8849,0.8859,0.8892,0.8904,0.8755,0.8755,0.8755,0,0.8242,0.8306,0.8302,0.8353,0.8377,0.8358,0.8415,0.8439,0.8488,0.8507,0.8486,0.8589,0.8617,0.8703,0.8726,0.8749,0.8765,0.8741,0.8847,0.8857,0.8866,0.8898,0.8911,0.8758,0.8757,0.8757,0.8757,0,0.8361,0.8406,0.8449,0.8488,0.8518,0.8573,0.8578,0.861,0.8605,0.8615,0.8686,0.8717,0.8768,0.8789,0.8789,0.8875,0.8862,0.8844,0.8808,0.8881,0.8911,0.8924,0.8762,0.8761,0.876,0.8759,0,0,0.8488,0.852,0.8536,0.8552,0.8585,0.8622,0.8676,0.872,0.8745,0.878,0.8825,0.8896,0.8877,0.8907,0.891,0.8948,0.9022,0.8925,0.8926,0.894,0.9116,0.9127,0.9141,0.9016,0.9018,0.902,0.9111,0,0.8583,0.8671,0.8667,0.8751,0.8792,0.8773,0.882,0.8847,0.8857,0.8897,0.8911,0.8959,0.8933,0.895,0.8987,0.9005,0.9057,0.8999,0.906,0.9062,0.9047,0.9157,0.9171,0.9255,0.9123,0.9125,0.9127,0,0.8707,0.8737,0.8822,0.8844,0.8862,0.8903,0.8941,0.8979,0.9009,0.9014,0.9044,0.9039,0.9096,0.9057,0.9136,0.9096,0.9121,0.9133,0.9136,0.9141,0.9098,0.9163,0.9283,0.9294,0.9146,0.9144,0.9143,0,0.8786,0.885,0.8908,0.8923,0.8952,0.898,0.8995,0.9022,0.9047,0.9083,0.9099,0.9143,0.9167,0.9202,0.9209,0.9181,0.9287,0.925,0.9294,0.9293,0.9316,0.9315,0.9439,0.9336,0.9336,0.9335,0.9335,0,0.8892,0.8944,0.8943,0.8979,0.9037,0.9034,0.9093,0.9106,0.9129,0.9168,0.9158,0.9196,0.9204,0.9245,0.9252,0.9314,0.9327,0.9333,0.9334,0.9333,0.9331,0.9348,0.9342,0.9339,0.9338,0.9337,0.9337,0,0.8991,0.8992,0.9053,0.9073,0.9079,0.9121,0.914,0.9175,0.9183,0.9233,0.9245,0.9259,0.9306,0.9316,0.9375,0.9379,0.9452,0.9449,0.9439,0.9438,0.948,0.9475,0.9618,0.9636,0.9523,0.9524,0.9525,0,0.9056,0.9095,0.9117,0.9139,0.9153,0.9191,0.9215,0.9213,0.9239,0.9274,0.9305,0.9349,0.9384,0.9461,0.9479,0.9522,0.9519,0.9565,0.9526,0.9521,0.9516,0.9512,0.9515,0.9573,0.9574,0.9575,0.9576,0,0.9172,0.9169,0.9201,0.9233,0.926,0.9287,0.9312,0.9332,0.9334,0.9365,0.9408,0.9435,0.949,0.9534,0.9577,0.9596,0.9587,0.9588,0.96,0.9599,0.959,0.9592,0.9458,0.9585,0.9584,0.9584,0.9583,0.9583,0.9255,0.9286,0.9305,0.934,0.9358,0.938,0.9412,0.9422,0.9457,0.9497,0.9496,0.9544,0.9572,0.9626,0.9647,0.9686,0.9672,0.9691,0.9695,0.9699,0.97,0.9584,0.9695,0.9695,0.9695,0.9694,0.9694,0,0.9367,0.9376,0.9409,0.9441,0.9469,0.9452,0.9479,0.9504,0.9544,0.9569,0.9601,0.9651,0.9693,0.9712,0.9753,0.9781,0.9778,0.9792,0.9789,0.9793,0.9713,0.9696,0.9793,0.9793,0.9793,0.9793,0.9793,0.9793,0.9428,0.948,0.9479,0.954,0.9551,0.9593,0.9609,0.963,0.9648,0.9702,0.9735,0.9745,0.9767,0.9809,0.9847,0.9852,0.9867,0.9882,0.9885,0.981,0.9799,0.979,0.9774,0.9886,0.9886,0.9962,0.9963,0.9963]},{"header":{"parameterUnit":"m.s-1","parameterCategory":1,"la1":30.2991,"la2":30.254,"lo1":-89.0895,"lo2":-89.0444,"dy":0.0017,"dx":0.0017,"nx":28,"ny":28,"refTime":"2025-08-18T21:00:00:Z","depth":0,"parameterNumber":3,"parameterNumberName":"V-component_of_WINDS"},"data":[0,0,0,0,0,0,0,0,0,0,0,0,0,0,0,0,0,0,0,0,0,0,0,0,0,0,0,0,0,0,0,0,0,0,0,0,0,0,0,0,0,0,0,0,0,0,0,0,0,0,0,0,0,0,0,0,0,0,1.3225,1.3222,0,1.2926,1.2922,1.2919,1.2669,1.2666,1.2664,1.2661,1.2354,1.2349,1.2343,0,0,0,0,0,0,0,0,0,0,0,0,0,1.3581,1.3576,1.3225,1.3221,1.3218,1.2926,1.2922,1.2918,1.267,1.2666,1.2663,1.266,1.2356,1.235,1.2343,0,0,0,0,0,0,0,0,0,0,0,0,0,1.3369,1.3574,1.3226,1.3058,1.304,1.2927,1.2922,1.2917,1.267,1.2666,1.2662,1.2658,1.2358,1.235,1.2342,1.237,0,0,1.2316,1.2312,0,0,0,0,0,0,0,0,1.3381,1.3356,1.3087,1.307,1.3049,1.2831,1.2935,1.2734,1.2671,1.2811,1.2661,1.2656,1.2516,1.2494,1.2447,1.2356,1.2342,1.2315,1.231,1.2306,1.2304,0,0,0,0,0,0,0,1.3396,1.3368,1.3106,1.3083,1.306,1.2998,1.2964,1.2896,1.269,1.2798,1.2779,1.2748,1.2505,1.2456,1.2438,1.2338,1.2315,1.2308,1.2302,1.2299,1.2257,1.226,0,0,0,0,0,0,1.3437,1.3382,1.3116,1.3097,1.3209,1.2995,1.2957,1.2905,1.269,1.2653,1.2751,1.2737,1.2472,1.2448,1.2426,1.2446,1.2306,1.2298,1.2293,1.2253,1.2258,1.2262,0,0,0,0,0,0,1.3446,1.3416,1.3128,1.3234,1.3193,1.2993,1.2938,1.2901,1.2851,1.2654,1.2616,1.2739,1.2468,1.2438,1.2386,1.2432,1.2295,1.2287,1.2248,1.2254,1.226,1.2486,0,0,0,0,0,0,1.3457,1.342,1.3428,1.3236,1.3188,1.3093,1.294,1.2898,1.2838,1.2816,1.2632,1.2598,1.2463,1.24,1.2378,1.2417,1.228,1.2243,1.2251,1.2258,1.2473,1.2499,1.252,0,0,0,0,0,1.347,1.3503,1.343,1.3399,1.3195,1.3096,1.3069,1.2913,1.2842,1.2849,1.2723,1.2604,1.2431,1.2397,1.237,1.2408,1.2239,1.2249,1.2257,1.2463,1.2494,1.252,0,0,0,0,0,0,1.3704,1.3475,1.3391,1.3363,1.3252,1.3055,1.3058,1.295,1.2856,1.2839,1.2649,1.261,1.258,1.2488,1.2454,1.2425,1.232,1.2324,1.2485,1.2513,1.2536,1.2558,1.2273,0,0,0,0,0,1.3753,1.3693,1.3495,1.349,1.3438,1.3259,1.321,1.31,1.2976,1.2928,1.2797,1.2682,1.2601,1.2552,1.2467,1.2459,1.2416,1.2472,1.2496,1.2516,1.2522,1.2512,1.2535,1.2291,1.2291,1.2291,0,0,1.3852,1.3719,1.3693,1.3533,1.3434,1.3376,1.322,1.3165,1.312,1.2919,1.2862,1.2763,1.2622,1.2593,1.2574,1.2516,1.258,1.2528,1.2545,1.2539,1.2524,1.2547,1.2568,1.2297,1.2296,1.2295,0,0,1.4003,1.3897,1.3881,1.3785,1.3637,1.3518,1.3515,1.3335,1.3262,1.3202,1.305,1.2995,1.286,1.2766,1.2701,1.2822,1.2709,1.2799,1.2922,1.2915,1.2935,1.2951,1.2994,1.3012,1.2806,1.2806,1.2806,0,1.4144,1.4051,1.3886,1.3841,1.3776,1.3593,1.3576,1.349,1.3323,1.3282,1.322,1.3049,1.2941,1.2888,1.2918,1.2871,1.2862,1.2818,1.2945,1.296,1.2972,1.3012,1.3029,1.2818,1.2817,1.2815,1.2814,0,1.4233,1.4171,1.4176,1.402,1.3956,1.3926,1.3756,1.3711,1.3608,1.3497,1.344,1.3304,1.3189,1.3169,1.3067,1.3103,1.3072,1.2981,1.2871,1.301,1.3044,1.3058,1.2835,1.2831,1.2827,1.2824,0,0,1.4519,1.4275,1.428,1.4208,1.4033,1.3982,1.3945,1.3833,1.3799,1.3691,1.3654,1.3547,1.3462,1.3388,1.3274,1.3269,1.3375,1.3177,1.3171,1.3219,1.3407,1.3477,1.3497,1.33,1.3302,1.3304,1.3419,0,1.4641,1.4563,1.4415,1.4384,1.4326,1.4153,1.412,1.401,1.3906,1.3842,1.3726,1.3653,1.3546,1.3501,1.3488,1.3365,1.341,1.3354,1.3265,1.3263,1.3305,1.3514,1.3587,1.3702,1.3432,1.3434,1.3435,0,1.4772,1.4676,1.4641,1.4472,1.4442,1.4416,1.4303,1.4244,1.4116,1.4041,1.3962,1.3838,1.3789,1.3691,1.3623,1.3589,1.3544,1.3479,1.3479,1.3464,1.3357,1.3505,1.3735,1.3753,1.3454,1.3453,1.3451,0,1.4985,1.4847,1.4808,1.4752,1.4554,1.454,1.4457,1.4326,1.427,1.4172,1.4133,1.4032,1.3976,1.3901,1.3753,1.3695,1.3702,1.3591,1.3639,1.3643,1.3646,1.3648,1.3873,1.362,1.3619,1.3619,1.3619,0,1.5136,1.5121,1.4901,1.4877,1.4856,1.4687,1.4671,1.4572,1.4457,1.4411,1.4256,1.4217,1.4025,1.3963,1.3848,1.381,1.3786,1.3724,1.3693,1.3737,1.3746,1.3704,1.3692,1.3623,1.3623,1.3622,1.3621,0,1.5369,1.5221,1.5167,1.4987,1.4941,1.4934,1.4778,1.4749,1.4638,1.4582,1.4559,1.4384,1.4304,1.415,1.4027,1.3949,1.3937,1.3883,1.398,1.3961,1.4018,1.4015,1.4223,1.4242,1.398,1.3982,1.3984,0,1.5475,1.5459,1.5278,1.5237,1.5161,1.5096,1.5039,1.4874,1.482,1.4677,1.4665,1.4574,1.4491,1.4372,1.4233,1.4139,1.4082,1.4162,1.4066,1.4112,1.4083,1.4086,1.4084,1.4183,1.4187,1.419,1.4192,0,1.5678,1.5606,1.553,1.543,1.5366,1.5278,1.5182,1.5158,1.497,1.4919,1.4836,1.4772,1.4648,1.4559,1.4446,1.436,1.4246,1.4224,1.423,1.4274,1.433,1.4301,1.4038,1.4219,1.4216,1.4214,1.4213,1.4212,1.5848,1.5828,1.5699,1.5619,1.5531,1.5446,1.541,1.5296,1.5224,1.511,1.5018,1.4944,1.4819,1.4655,1.4577,1.4517,1.4461,1.447,1.4472,1.4477,1.4495,1.4342,1.4496,1.4495,1.4494,1.4493,1.4492,0,1.6043,1.5953,1.5882,1.5754,1.5693,1.5593,1.5483,1.5438,1.5375,1.5269,1.5192,1.5099,1.5013,1.487,1.4773,1.4752,1.4698,1.4732,1.4731,1.4714,1.455,1.4554,1.4778,1.4778,1.4778,1.4778,1.4778,1.4778,1.6137,1.6098,1.6012,1.5928,1.5836,1.5763,1.5709,1.5631,1.5545,1.5449,1.5377,1.5285,1.5165,1.5058,1.4976,1.4936,1.4907,1.4959,1.4903,1.4752,1.4725,1.47,1.4703,1.4954,1.4955,1.5071,1.5072,1.5073]}]]